KLRIVER36 Weather Reports


time (UTC)temp
C
wind
direction
speed
KPH
gust
KPH
rain 1hr
cm
rain 24hr
cm
rain mn
cm
humidity
%
barometer
mb
20260510164602 27 120 0.0 8.0 0.00 2.54 0.00 76 1017.0
20260510164056 26 0 1.6 8.0 0.00 2.54 0.00 76 1016.9
20260510163554 27 94 1.6 4.8 0.00 2.54 0.00 73 1017.0
20260510163056 27 0 0.0 4.8 0.00 2.54 0.00 76 1016.9
20260510162555 27 65 1.6 4.8 0.00 2.54 0.00 77 1016.8
20260510162054 26 1 1.6 4.8 0.00 2.54 0.00 78 1016.9
20260510161558 26 29 1.6 6.4 0.00 2.54 0.00 76 1017.1
20260510161056 27 86 1.6 6.4 0.00 2.54 0.00 78 1017.1
20260510160554 27 53 1.6 6.4 0.00 2.54 0.00 77 1017.0
20260510160109 26 1 1.6 4.8 0.00 2.54 0.00 77 1016.9
20260510155553 26 1 1.6 4.8 0.00 3.28 0.00 76 1016.8
20260510155057 26 132 1.6 6.4 0.00 3.28 0.00 75 1016.7
20260510154617 26 86 3.2 6.4 0.00 3.28 0.00 76 1016.6
20260510154054 26 86 1.6 4.8 0.00 3.28 0.00 78 1016.6
20260510153554 26 359 1.6 4.8 0.00 3.28 0.00 80 1016.5
20260510152553 26 55 1.6 6.4 0.00 3.28 0.00 79 1016.5
20260510152056 25 359 1.6 6.4 0.00 3.28 0.00 80 1016.5
20260510151555 25 8 1.6 3.2 0.00 3.28 0.00 81 1016.8
20260510151053 25 94 1.6 8.0 0.00 3.28 0.00 82 1017.0
20260510150554 24 75 0.0 8.0 0.00 3.28 0.00 85 1016.8
20260510145554 23 11 3.2 8.0 0.00 3.43 0.00 86 1017.0
20260510145054 23 1 0.0 3.2 0.00 3.43 0.00 90 1017.1
20260510144610 23 0 0.0 6.4 0.00 3.43 0.00 90 1017.1
20260510144054 23 8 1.6 9.7 0.00 3.43 0.00 90 1017.1
20260510143554 22 1 1.6 9.7 0.00 3.43 0.00 90 1017.0
20260510143059 22 1 1.6 6.4 0.00 3.43 0.00 92 1017.0
20260510142553 22 10 1.6 6.4 0.00 3.43 0.00 92 1016.9
20260510142053 22 2 1.6 8.0 0.00 3.43 0.00 92 1016.9
20260510141558 22 37 0.0 8.0 0.00 3.43 0.00 93 1016.9
20260510141053 22 0 1.6 8.0 0.00 3.43 0.00 93 1016.8
20260510140559 21 1 1.6 8.0 0.00 3.43 0.00 93 1016.8
20260510140054 21 0 1.6 6.4 0.00 3.43 0.00 94 1016.7
20260510135554 21 0 1.6 6.4 0.00 5.03 0.00 94 1016.7
20260510135054 21 0 0.0 6.4 0.00 5.03 0.00 94 1016.8
20260510134557 21 0 1.6 6.4 0.00 5.03 0.00 94 1016.8
20260510134057 21 1 0.0 4.8 0.00 5.03 0.00 94 1016.7
20260510133555 21 0 0.0 4.8 0.00 5.03 0.00 94 1016.8
20260510133058 21 21 1.6 4.8 0.00 5.03 0.00 94 1016.8
20260510132552 21 359 0.0 4.8 0.00 5.03 0.00 95 1016.8
20260510132055 21 9 0.0 4.8 0.00 5.03 0.00 95 1016.6
20260510131603 21 360 1.6 4.8 0.00 5.03 0.00 95 1016.4
20260510131055 20 360 0.0 4.8 0.00 5.03 0.00 95 1016.4
20260510130559 20 0 0.0 4.8 0.00 5.03 0.00 95 1016.4
20260510130056 20 0 1.6 4.8 0.00 5.03 0.00 95 1016.2
20260510125554 20 42 3.2 4.8 0.00 5.03 0.00 95 1016.1
20260510125054 20 1 1.6 4.8 0.00 5.03 0.00 95 1016.0
20260510124612 20 1 1.6 4.8 0.00 5.03 0.00 95 1015.9
20260510124056 20 25 1.6 3.2 0.00 5.03 0.00 95 1015.7
20260510123552 20 25 0.0 3.2 0.00 5.03 0.00 95 1015.5
20260510123110 20 0 0.0 3.2 0.00 5.03 0.00 95 1015.4
20260510122552 20 0 0.0 3.2 0.00 5.03 0.00 95 1015.4
20260510122052 20 0 0.0 3.2 0.00 5.03 0.00 95 1015.4
20260510121559 20 0 0.0 0.0 0.00 5.03 0.00 95 1015.5
20260510121052 20 0 0.0 0.0 0.00 5.03 0.00 95 1015.4
20260510120554 20 0 0.0 3.2 0.00 5.03 0.00 95 1015.4
20260510120055 20 0 0.0 3.2 0.00 5.03 0.00 95 1015.5
20260510115554 20 0 0.0 3.2 0.00 5.03 0.00 95 1015.3
20260510115054 19 0 0.0 3.2 0.00 5.03 0.00 95 1015.3
20260510114605 19 2 0.0 3.2 0.00 5.03 0.00 94 1015.2
20260510114054 19 0 0.0 1.6 0.00 5.03 0.00 94 1015.1
20260510113554 19 0 0.0 3.2 0.00 5.03 0.00 94 1015.0
20260510113102 19 0 0.0 3.2 0.00 5.03 0.00 94 1014.7
20260510112552 19 101 0.0 3.2 0.00 5.03 0.00 94 1014.7
20260510112052 19 0 0.0 3.2 0.00 5.03 0.00 94 1014.7
20260510111614 20 39 0.0 3.2 0.00 5.03 0.00 94 1014.6
20260510111055 19 0 0.0 3.2 0.00 5.03 0.00 94 1014.5
20260510110552 19 0 0.0 1.6 0.00 5.03 0.00 94 1014.4
20260510110055 19 0 0.0 1.6 0.00 5.03 0.00 94 1014.3
20260510105552 19 0 0.0 1.6 0.00 5.03 0.00 94 1014.3
20260510105052 19 0 0.0 0.0 0.00 5.03 0.00 94 1014.2
20260510104604 19 0 0.0 3.2 0.00 5.03 0.00 94 1014.1
20260510104051 19 0 0.0 3.2 0.00 5.03 0.00 94 1013.9
20260510103553 19 0 0.0 1.6 0.00 5.03 0.00 94 1013.9
20260510103056 19 0 0.0 1.6 0.00 5.03 0.00 94 1013.8
20260510102555 19 0 0.0 3.2 0.00 5.03 0.00 94 1013.5
20260510102054 19 0 0.0 3.2 0.00 5.03 0.00 94 1013.7
20260510101555 19 0 0.0 3.2 0.00 5.03 0.00 94 1013.6
20260510101054 19 0 0.0 3.2 0.00 5.03 0.00 94 1013.6
20260510100558 19 0 0.0 3.2 0.00 5.03 0.00 94 1013.5
20260510100059 19 0 0.0 3.2 0.00 5.03 0.00 94 1013.4
20260510095554 19 0 0.0 3.2 0.00 5.03 0.00 94 1013.4
20260510095058 19 0 0.0 3.2 0.00 5.03 0.00 94 1013.4
20260510094551 19 1 0.0 0.0 0.00 5.03 0.00 94 1013.4
20260510094054 19 0 0.0 1.6 0.00 5.03 0.00 94 1013.5
20260510093554 19 0 0.0 1.6 0.00 5.03 0.00 94 1013.5
20260510093055 19 0 0.0 0.0 0.00 5.03 0.00 94 1013.5
20260510092554 19 0 0.0 1.6 0.00 5.03 0.00 94 1013.4
20260510092053 19 0 0.0 6.4 0.00 5.03 0.00 94 1013.3
20260510091559 19 1 1.6 6.4 0.00 5.03 0.00 94 1013.3
20260510091053 19 1 1.6 3.2 0.00 5.03 0.00 94 1013.1
20260510090555 19 19 1.6 3.2 0.00 5.03 0.00 94 1013.1
20260510090104 19 360 0.0 3.2 0.00 5.03 0.00 94 1013.1
20260510085557 19 1 0.0 3.2 0.00 5.03 0.00 94 1013.2
20260510085054 18 0 0.0 1.6 0.00 5.03 0.00 94 1013.2
20260510084559 18 0 0.0 3.2 0.00 5.03 0.00 94 1013.2
20260510084054 18 2 0.0 3.2 0.00 5.03 0.00 94 1013.2
20260510083554 18 2 0.0 0.0 0.00 5.03 0.00 94 1013.2
20260510083054 18 0 0.0 0.0 0.00 5.03 0.00 94 1013.2
20260510082553 18 0 0.0 0.0 0.00 5.03 0.00 94 1013.3
20260510082054 18 0 0.0 0.0 0.00 5.03 0.00 94 1013.2
20260510081600 18 0 0.0 0.0 0.00 5.03 0.00 94 1013.1
20260510081054 18 0 0.0 0.0 0.00 5.03 0.00 94 1013.0
20260510080554 18 0 0.0 0.0 0.00 5.03 0.00 94 1012.9
20260510075557 18 0 0.0 0.0 0.00 5.03 0.00 94 1012.9
20260510075058 18 0 0.0 0.0 0.00 5.03 0.00 94 1012.9
20260510074553 18 0 0.0 0.0 0.00 5.03 0.00 94 1012.9
20260510074055 18 0 0.0 0.0 0.00 5.03 0.00 94 1012.9
20260510073554 18 0 0.0 0.0 0.00 5.03 0.00 94 1012.9
20260510073055 18 0 0.0 0.0 0.00 5.03 0.00 94 1012.8
20260510072556 18 0 0.0 0.0 0.00 5.03 0.00 94 1012.6
20260510072053 18 0 0.0 0.0 0.00 5.03 0.00 94 1012.6
20260510071555 18 0 0.0 3.2 0.00 5.03 0.00 94 1012.5
20260510071054 18 0 0.0 3.2 0.00 5.03 0.00 94 1012.5
20260510070556 18 0 0.0 3.2 0.00 5.03 0.00 94 1012.6
20260510070106 18 2 0.0 3.2 0.00 5.03 0.00 94 1012.8
20260510065556 18 2 0.0 3.2 0.00 5.03 0.00 94 1012.8
20260510065055 18 0 0.0 0.0 0.00 5.03 0.00 94 1012.7
20260510064608 18 0 0.0 0.0 0.00 5.03 0.00 94 1012.7
20260510064055 18 0 0.0 0.0 0.00 5.03 0.00 94 1012.8
20260510063555 18 0 0.0 0.0 0.00 5.03 0.00 94 1012.8
20260510063055 18 0 0.0 4.8 0.00 5.03 0.00 94 1012.7
20260510062558 19 0 0.0 4.8 0.00 5.03 0.00 94 1012.6
20260510062052 19 1 1.6 3.2 0.00 5.03 0.00 94 1012.7
20260510061554 18 32 0.0 3.2 0.00 5.03 0.00 94 1012.7
20260510061102 18 27 0.0 3.2 0.00 5.03 0.00 94 1012.8
20260510060557 18 0 0.0 0.0 0.00 5.03 0.00 94 1012.7
20260510060056 18 0 0.0 0.0 0.00 5.03 0.00 94 1012.8
20260510055554 19 0 0.0 0.0 0.00 5.03 0.00 94 1012.8
20260510055055 19 0 0.0 0.0 0.00 5.03 0.00 93 1012.8
20260510054600 19 0 0.0 0.0 0.00 5.03 0.00 94 1012.9
20260510054055 19 0 0.0 3.2 0.00 5.03 0.00 93 1012.7
20260510053555 19 0 0.0 3.2 0.00 5.03 0.00 93 1012.7
20260510053057 19 0 0.0 0.0 0.00 5.03 0.00 94 1012.5
20260510052556 19 0 0.0 0.0 0.00 5.03 0.00 93 1012.5
20260510052055 19 0 0.0 1.6 0.00 5.03 0.00 94 1012.6
20260510051608 20 0 0.0 3.2 0.00 5.03 0.00 93 1012.7
20260510051604 20 0 0.0 3.2 0.00 5.03 0.00 94 1012.5
20260510050555 20 0 0.0 3.2 0.00 5.03 0.00 94 1012.6
20260510045552 20 0 0.0 0.0 0.00 5.03 5.03 94 1012.8
20260510045052 20 0 0.0 0.0 0.00 5.03 5.03 94 1012.8
20260510044602 20 0 0.0 0.0 0.00 5.03 5.03 94 1012.7
20260510044053 20 0 0.0 0.0 0.00 5.03 5.03 94 1012.8
20260510043553 20 0 0.0 0.0 0.00 5.03 5.03 94 1013.0
20260510043051 20 0 0.0 3.2 0.00 5.03 5.03 93 1013.0
20260510042552 20 0 0.0 3.2 0.00 5.03 5.03 94 1013.1
20260510042052 20 0 0.0 3.2 0.00 5.03 5.03 94 1013.0
20260510041606 20 0 0.0 3.2 0.00 5.03 5.03 94 1012.8
20260510041052 20 0 0.0 3.2 0.00 5.03 5.03 94 1012.7
20260510040552 20 164 0.0 3.2 0.00 5.03 5.03 94 1012.6
20260510040054 20 110 0.0 3.2 0.00 5.03 5.03 94 1012.7
20260510035552 20 0 0.0 3.2 0.00 5.03 5.03 94 1012.7
20260510035052 20 0 0.0 1.6 0.00 5.03 5.03 94 1013.0
20260510034602 19 0 0.0 1.6 0.00 5.03 5.03 94 1013.2
20260510034054 19 0 0.0 0.0 0.00 5.03 5.03 93 1013.3
20260510033554 19 0 0.0 3.2 0.00 5.03 5.03 93 1013.5
20260510033057 19 0 0.0 3.2 0.00 5.03 5.03 93 1013.7
20260510032552 19 0 0.0 3.2 0.00 5.03 5.03 94 1013.8
20260510032053 19 0 0.0 3.2 0.00 5.03 5.03 94 1013.7
20260510031604 19 0 0.0 0.0 0.00 5.03 5.03 93 1013.7
20260510031053 19 0 0.0 0.0 0.00 5.03 5.03 93 1013.7
20260510030554 19 0 0.0 0.0 0.00 5.03 5.03 93 1013.8
20260510030104 19 0 0.0 0.0 0.00 5.03 5.03 93 1013.8
20260510025552 19 0 0.0 0.0 0.00 5.03 5.03 93 1013.7
20260510025055 19 0 0.0 3.2 0.00 5.03 5.03 93 1013.7
20260510024555 19 0 0.0 3.2 0.00 5.03 5.03 93 1013.7
20260510024052 19 0 0.0 1.6 0.00 5.03 5.03 93 1013.8
20260510023556 19 0 0.0 0.0 0.00 5.03 5.03 93 1013.8
20260510023055 19 0 0.0 0.0 0.00 5.03 5.03 93 1013.6
20260510022557 19 0 0.0 0.0 0.00 5.03 5.03 93 1013.4
20260510022056 19 0 0.0 0.0 0.00 5.03 5.03 93 1013.4
20260510021551 19 0 0.0 0.0 0.00 5.03 5.03 93 1013.2
20260510021052 19 0 0.0 0.0 0.00 5.03 5.03 93 1013.2
20260510020552 20 0 0.0 0.0 0.00 5.03 5.03 93 1013.4
20260510020054 20 0 0.0 0.0 0.00 5.03 5.03 93 1013.3
20260510015553 20 0 0.0 0.0 0.00 5.03 5.03 93 1013.1
20260510015052 20 0 0.0 3.2 0.00 5.03 5.03 93 1013.1
20260510014600 20 0 0.0 3.2 0.03 5.03 5.03 93 1013.0
20260510014052 20 0 0.0 0.0 0.03 5.03 5.03 93 1013.0
20260510013551 20 0 0.0 1.6 0.03 5.03 5.03 93 1013.0
20260510013058 20 0 0.0 3.2 0.05 5.03 5.03 93 1012.8
20260510012553 20 0 0.0 3.2 0.05 5.03 5.03 93 1012.8
20260510012053 20 0 0.0 3.2 0.05 5.03 5.03 93 1012.7
20260510011552 20 0 0.0 3.2 0.05 5.03 5.03 93 1012.8
20260510011053 20 0 0.0 3.2 0.05 5.03 5.03 93 1012.7
20260510010552 20 0 0.0 3.2 0.05 5.03 5.03 93 1012.7
20260510010054 20 0 0.0 3.2 0.05 5.03 5.03 93 1012.7
20260510005552 20 0 0.0 3.2 0.05 5.03 5.03 93 1012.8
20260510005056 20 0 0.0 3.2 0.05 5.03 5.03 93 1012.8
20260510004553 20 0 0.0 3.2 0.03 5.00 5.00 93 1012.8
20260510004052 20 0 0.0 3.2 0.03 5.00 5.00 93 1012.9
20260510003556 20 0 0.0 3.2 0.03 5.00 5.00 93 1012.6
20260510003058 20 0 0.0 0.0 0.00 4.98 4.98 93 1012.8
20260510002557 20 0 0.0 0.0 0.03 4.98 4.98 93 1012.7
20260510002052 20 0 0.0 0.0 0.03 4.98 4.98 93 1012.7
20260510001554 20 0 0.0 0.0 0.05 4.98 4.98 93 1012.7
20260510001053 20 0 0.0 1.6 0.08 4.98 4.98 93 1012.7
20260510000557 20 0 0.0 1.6 0.08 4.98 4.98 93 1012.6
20260509235555 20 0 0.0 0.0 0.15 4.98 4.98 93 1012.7
20260509235052 20 0 0.0 1.6 0.18 4.98 4.98 93 1012.8
20260509234604 20 0 0.0 3.2 0.20 4.98 4.98 93 1012.9
20260509234056 20 0 0.0 3.2 0.20 4.98 4.98 93 1012.7
20260509233555 20 0 0.0 3.2 0.20 4.98 4.98 93 1012.7
20260509233059 20 0 0.0 3.2 0.20 4.98 4.98 93 1012.6
20260509232555 20 0 0.0 3.2 0.18 4.95 4.95 93 1012.7
20260509232054 20 0 0.0 3.2 0.18 4.95 4.95 93 1012.7
20260509231610 20 0 0.0 1.6 0.15 4.93 4.93 93 1012.9
20260509231053 20 0 0.0 3.2 0.13 4.90 4.90 93 1013.0
20260509230552 20 179 0.0 3.2 0.13 4.90 4.90 93 1012.9
20260509230106 20 44 0.0 3.2 0.10 4.88 4.88 93 1012.7
20260509225553 20 0 0.0 3.2 0.05 4.90 4.83 93 1012.8
20260509225100 20 0 0.0 3.2 0.03 4.88 4.80 93 1013.0
20260509224556 20 0 0.0 3.2 0.03 4.85 4.78 93 1012.9
20260509224058 20 0 0.0 3.2 0.03 4.85 4.78 93 1012.7
20260509223553 20 0 0.0 3.2 0.05 4.85 4.78 93 1012.5
20260509223056 20 0 0.0 3.2 0.05 4.85 4.78 93 1012.4
20260509222555 20 191 0.0 3.2 0.05 4.85 4.78 93 1012.4
20260509222052 20 177 0.0 3.2 0.05 4.85 4.78 93 1012.1
20260509221559 20 0 0.0 0.0 0.05 4.85 4.78 93 1012.0
20260509221053 20 0 0.0 3.2 0.05 4.85 4.78 93 1011.8
20260509220557 20 0 0.0 3.2 0.05 4.85 4.78 93 1011.6
20260509220055 20 0 0.0 3.2 0.05 4.85 4.78 93 1012.0
20260509215553 20 0 0.0 4.8 0.05 5.11 4.78 93 1012.0
20260509215054 20 0 0.0 4.8 0.05 5.11 4.78 93 1012.3
20260509214554 20 0 0.0 4.8 0.03 5.08 4.75 93 1012.2
20260509214055 20 0 0.0 3.2 0.03 5.08 4.75 93 1012.3
20260509213553 20 0 0.0 3.2 0.00 5.05 4.72 93 1012.4
20260509213057 20 200 0.0 3.2 0.00 5.05 4.72 93 1012.3
20260509212553 20 165 0.0 3.2 0.00 5.05 4.72 93 1012.0
20260509212052 20 0 0.0 3.2 0.00 5.05 4.72 93 1012.0
20260509211602 20 0 0.0 3.2 0.00 5.05 4.72 93 1011.9
20260509211053 20 0 0.0 3.2 0.00 5.05 4.72 93 1011.7
20260509210557 20 0 0.0 3.2 0.00 5.05 4.72 93 1011.6
20260509210108 20 0 0.0 3.2 0.00 5.05 4.72 93 1011.6
20260509205558 20 0 0.0 3.2 0.00 7.32 4.72 93 1011.6
20260509205052 20 0 0.0 3.2 0.03 7.32 4.72 93 1011.5
20260509204053 20 0 0.0 3.2 0.08 7.32 4.72 93 1011.7
20260509203559 20 88 0.0 3.2 0.10 7.32 4.72 94 1011.8
20260509203100 20 0 0.0 3.2 0.13 7.32 4.72 94 1011.7
20260509202557 20 0 0.0 3.2 0.15 7.32 4.72 93 1011.9
20260509202053 20 0 0.0 3.2 0.15 7.32 4.72 93 1012.1
20260509201607 20 0 0.0 3.2 0.18 7.32 4.72 93 1012.2
20260509201053 20 0 0.0 3.2 0.18 7.32 4.72 93 1012.4
20260509200553 20 0 0.0 1.6 0.20 7.32 4.72 93 1012.8
20260509200103 20 0 0.0 3.2 0.25 7.32 4.72 93 1013.0
20260509195555 20 0 0.0 3.2 0.25 7.32 4.72 93 1013.0
20260509195056 20 0 0.0 3.2 0.25 7.29 4.70 93 1013.0
20260509194600 20 162 0.0 1.6 0.25 7.26 4.67 93 1013.0
20260509194057 20 0 0.0 1.6 0.25 7.24 4.65 93 1012.9
20260509193553 19 0 0.0 0.0 0.25 7.21 4.62 93 1013.0
20260509193056 20 0 0.0 3.2 0.20 7.16 4.57 93 1013.1
20260509192556 19 0 0.0 3.2 0.25 7.16 4.57 93 1013.2
20260509192054 19 0 0.0 0.0 0.28 7.16 4.57 93 1013.3
20260509191555 19 0 0.0 3.2 0.28 7.14 4.55 93 1013.4
20260509191054 19 0 0.0 3.2 0.28 7.14 4.55 93 1013.6
20260509190557 19 0 0.0 3.2 0.28 7.11 4.52 93 1013.8
20260509190109 19 0 0.0 0.0 0.23 7.06 4.47 93 1013.7
20260509185553 19 0 0.0 3.2 0.25 7.06 4.47 93 1013.7
20260509185053 19 0 0.0 3.2 0.23 7.04 4.45 93 1013.2
20260509184557 19 0 0.0 3.2 0.20 7.01 4.42 93 1013.4
20260509184053 19 0 0.0 3.2 0.23 6.99 4.39 93 1013.3
20260509183553 19 0 0.0 3.2 0.23 6.96 4.37 93 1013.1
20260509183055 19 90 0.0 3.2 0.23 6.93 4.34 93 1013.0
20260509182552 19 0 0.0 3.2 0.23 6.91 4.32 93 1013.1
20260509182052 19 0 0.0 3.2 0.25 6.88 4.29 93 1013.6
20260509181604 19 181 0.0 3.2 0.30 6.86 4.27 93 1013.6
20260509181057 19 110 0.0 3.2 0.38 6.86 4.27 93 1013.4
20260509180557 19 0 0.0 3.2 0.41 6.83 4.24 93 1013.5
20260509175553 19 0 1.6 4.8 0.81 6.81 4.22 92 1013.2
20260509175053 19 0 0.0 3.2 1.04 6.81 4.22 93 1013.2
20260509174557 19 78 0.0 6.4 1.17 6.81 4.22 92 1013.4
20260509174053 19 0 0.0 6.4 1.22 6.76 4.17 93 1013.3
20260509173555 19 64 1.6 6.4 1.30 6.73 4.14 92 1012.8
20260509173101 19 90 0.0 3.2 1.32 6.71 4.11 93 1013.3
20260509172556 18 0 0.0 3.2 1.32 6.68 4.09 92 1013.8
20260509172053 18 97 0.0 3.2 1.32 6.63 4.04 92 1013.6
20260509171555 18 0 0.0 3.2 1.27 6.53 3.94 92 1013.8
20260509171054 18 0 0.0 3.2 1.27 6.48 3.89 92 1014.1
20260509170552 18 0 0.0 3.2 1.27 6.43 3.84 92 1014.0
20260509170104 18 0 0.0 3.2 1.09 6.17 3.58 92 1013.8
20260509165600 18 0 0.0 3.2 0.97 5.97 3.40 92 1014.0
20260509165053 18 0 0.0 8.0 0.79 5.77 3.17 92 1014.0